Home > Time Zones > World Clock > Weather > Aktau > Past weeks

Flag for Kazakhstan Weather past 2 weeks in Aktau, Kazakhstan

Now
106 °F

Sunny.


Feels Like: 100 °F
Forecast: 81 / 100 °F
Wind: 10 mph from Northeast

Location: Aktau

Current Time: Aug 3, 2015 at 12:15:48 PM

Latest Report: Aug 3, 2015 at 11:30 AM


Visibility: 10 mi

Pressure: 29.92 "Hg

Humidity: 10%

Dew point: 39 °F

Location of AktauLocation

Historic Weather in Aktau — Graph

°F

Aktau temperature yesterday

Maximum temperature yesterday: 102 °F (at 2:00 PM)
Minimum temperature yesterday: 73 °F (at 3:00 AM)
Average temperature yesterday: 89 °F

Past Weeks' High & Low Weather Summary

 TemperatureHumidityPressure
High106 °F (Aug 1, 1:00 PM)88% (Jul 22, 6:00 AM)30.04 "Hg (Jul 22, 6:00 AM)
Low57 °F (Jul 24, 6:00 AM)8% (Jul 27, 8:00 PM)29.65 "Hg (Jul 27, 7:00 PM)
Average81 °F37%29.85 "Hg
* Reported Jul 19 11:00 AM — Aug 3 11:00 AM, Aktau, Weather by CustomWeather, © 2015

Note: Actual official high and low records may vary slightly from our data, if they occured in-between our weather recording intervals... More about our weather records

Advertising

Aktau weather history for previous 24 hours

 ConditionsComfort  
Time TempWeatherWind HumidityBarometerVisibility
11:00 AM
Mon, Aug 3
106 °FPassing clouds.3 mph9%29.92 "HgN/A
10:30 AM102 °FPassing clouds.6 mph13%29.92 "HgN/A
10:00 AM100 °FSunny.8 mph15%29.92 "Hg10 mi
9:30 AM97 °FSunny.8 mph19%29.92 "Hg10 mi
9:00 AM93 °FSunny.10 mph21%29.92 "Hg10 mi
8:30 AM90 °FSunny.10 mph26%29.92 "Hg10 mi
8:00 AM86 °FClear.10 mph29%29.92 "Hg10 mi
7:30 AM84 °FClear.10 mph29%29.92 "Hg10 mi
7:00 AM82 °FClear.10 mph28%29.92 "Hg10 mi
6:30 AM81 °FClear.8 mph30%29.92 "Hg10 mi
6:00 AM81 °FClear.10 mph30%29.92 "Hg10 mi
5:30 AM82 °FClear.8 mph26%29.92 "Hg10 mi
5:00 AM81 °FClear.8 mph26%29.92 "Hg10 mi
4:30 AM81 °FClear.8 mph28%29.92 "Hg10 mi
4:00 AM81 °FClear.8 mph26%29.92 "Hg10 mi
3:30 AM82 °FClear.8 mph25%29.92 "Hg10 mi
3:00 AM84 °FClear.8 mph23%29.92 "Hg10 mi
2:30 AM84 °FClear.8 mph23%29.92 "Hg10 mi
1:30 AM84 °FClear.8 mph20%29.92 "Hg10 mi
1:00 AM86 °FClear.8 mph19%29.92 "Hg10 mi
12:30 AM86 °FClear.8 mph19%29.92 "Hg10 mi
12:00 AM86 °FClear.8 mph20%29.92 "Hg10 mi
11:30 PM
Sun, Aug 2
86 °FClear.10 mph22%29.92 "Hg10 mi
11:00 PM88 °FClear.8 mph22%29.92 "Hg10 mi
10:30 PM88 °FSunny.8 mph24%29.92 "Hg10 mi
10:00 PM90 °FSunny.8 mph24%29.92 "Hg10 mi
9:30 PM93 °FSunny.8 mph23%29.92 "Hg10 mi
9:00 PM91 °FSunny.8 mph17%29.89 "Hg10 mi
8:30 PM95 °FSunny.8 mph12%29.89 "Hg10 mi
8:00 PM97 °FPassing clouds.10 mph11%29.89 "HgN/A
7:30 PM97 °FSunny.13 mph10%29.89 "Hg10 mi
7:00 PM97 °FPassing clouds.15 mph10%29.89 "HgN/A
6:30 PM99 °FPassing clouds.13 mph9%29.89 "HgN/A
6:00 PM99 °FPassing clouds.13 mph9%29.89 "HgN/A
5:30 PM99 °FSunny.13 mph10%29.89 "Hg10 mi
5:00 PM99 °FSunny.13 mph10%29.89 "Hg10 mi
4:30 PM95 °FSunny.13 mph11%29.89 "Hg10 mi
4:00 PM97 °FPassing clouds.13 mph11%29.89 "HgN/A
3:30 PM95 °FPassing clouds.15 mph11%29.89 "HgN/A
3:00 PM97 °FSunny.13 mph13%29.89 "Hg10 mi
2:30 PM99 °FSunny.15 mph13%29.89 "Hg10 mi
2:00 PM102 °FPassing clouds.8 mph9%29.89 "HgN/A
1:30 PM100 °FPassing clouds.8 mph10%29.89 "HgN/A
1:00 PM99 °FPassing clouds.8 mph11%29.89 "HgN/A
12:30 PM100 °FPassing clouds.8 mph13%29.89 "HgN/A
12:00 PM100 °FPassing clouds.8 mph10%29.89 "HgN/A
Weather by CustomWeather, © 2015

See weather overviewHow to use our weather pages